TimeCST,TemperatureF,Dew PointF,Humidity,Sea Level PressureIn,VisibilityMPH,Wind Direction,Wind SpeedMPH,Gust SpeedMPH,PrecipitationIn,Events,Conditions,WindDirDegrees,DateUTC
12:15 AM,3.2,-0.4,85,29.96,1.5,NE,3.5,-,N/A,Snow,Light Snow,50,2012-12-13 06:15:00
12:35 AM,3.2,-0.4,85,29.95,1.0,East,4.6,-,N/A,Snow,Light Snow,100,2012-12-13 06:35:00
12:55 AM,5.0,-0.4,78,29.95,2.0,East,4.6,-,0.01,Snow,Light Snow,80,2012-12-13 06:55:00
1:15 AM,5.0,1.4,85,29.94,2.0,ENE,4.6,-,0.01,Snow,Light Snow,70,2012-12-13 07:15:00
1:35 AM,5.0,1.4,85,29.96,2.0,Calm,Calm,-,0.02,Snow,Light Snow,0,2012-12-13 07:35:00
1:55 AM,5.0,1.4,85,29.95,2.5,ENE,3.5,-,0.04,Snow,Light Snow,70,2012-12-13 07:55:00
2:15 AM,5.0,1.4,85,29.96,3.0,Calm,Calm,-,N/A,Snow,Light Snow,0,2012-12-13 08:15:00
2:35 AM,5.0,1.4,85,29.96,5.0,ENE,3.5,-,0.01,Snow,Light Snow,70,2012-12-13 08:35:00
2:55 AM,5.0,1.4,85,29.96,5.0,ENE,3.5,-,0.02,Snow,Light Snow,60,2012-12-13 08:55:00
3:15 AM,5.0,1.4,85,29.95,7.0,East,3.5,-,N/A,Snow,Light Snow,80,2012-12-13 09:15:00
3:35 AM,5.0,1.4,85,29.95,10.0,East,4.6,-,N/A,,Overcast,80,2012-12-13 09:35:00
3:55 AM,5.0,1.4,85,29.96,8.0,ENE,4.6,-,N/A,Snow,Light Snow,70,2012-12-13 09:55:00
4:15 AM,5.0,1.4,85,29.96,7.0,NE,4.6,-,N/A,Snow,Light Snow,40,2012-12-13 10:15:00
4:35 AM,6.8,3.2,85,29.96,8.0,NE,5.8,-,0.01,Snow,Light Snow,50,2012-12-13 10:35:00
4:55 AM,6.8,3.2,85,29.97,6.0,NNE,4.6,-,0.03,Snow,Light Snow,30,2012-12-13 10:55:00
5:15 AM,6.8,3.2,85,29.96,8.0,NNE,4.6,-,N/A,Snow,Light Snow,30,2012-12-13 11:15:00
5:35 AM,6.8,3.2,85,29.95,8.0,NE,6.9,-,0.02,Snow,Light Snow,50,2012-12-13 11:35:00
5:55 AM,6.8,3.2,85,29.96,9.0,ENE,5.8,-,0.02,Snow,Light Snow,60,2012-12-13 11:55:00
6:15 AM,6.8,3.2,85,29.97,10.0,East,3.5,-,N/A,,Overcast,80,2012-12-13 12:15:00
6:35 AM,6.8,3.2,85,29.96,10.0,East,5.8,-,N/A,,Overcast,100,2012-12-13 12:35:00
6:55 AM,6.8,5.0,92,29.95,10.0,ESE,6.9,-,N/A,Snow,Light Snow,120,2012-12-13 12:55:00
7:15 AM,6.8,5.0,92,29.96,10.0,ENE,3.5,-,N/A,,Overcast,60,2012-12-13 13:15:00
7:35 AM,6.8,5.0,92,29.96,10.0,Calm,Calm,-,N/A,,Overcast,0,2012-12-13 13:35:00
7:55 AM,6.8,5.0,92,29.95,10.0,East,4.6,-,N/A,,Overcast,100,2012-12-13 13:55:00
8:15 AM,6.8,5.0,92,29.95,10.0,SE,5.8,-,N/A,,Overcast,130,2012-12-13 14:15:00
8:35 AM,8.6,5.0,85,29.95,10.0,ESE,4.6,-,N/A,,Overcast,110,2012-12-13 14:35:00
8:55 AM,8.6,5.0,85,29.94,10.0,East,5.8,-,N/A,,Overcast,100,2012-12-13 14:55:00
9:15 AM,8.6,6.8,92,29.93,10.0,ESE,5.8,-,N/A,,Overcast,110,2012-12-13 15:15:00
9:35 AM,8.6,6.8,92,29.93,10.0,East,5.8,-,N/A,,Mostly Cloudy,90,2012-12-13 15:35:00
9:55 AM,8.6,6.8,92,29.93,10.0,East,4.6,-,N/A,,Mostly Cloudy,100,2012-12-13 15:55:00
10:15 AM,10.4,6.8,85,29.94,10.0,ESE,4.6,-,N/A,,Overcast,120,2012-12-13 16:15:00
10:35 AM,10.4,8.6,92,29.94,10.0,Calm,Calm,-,N/A,,Overcast,0,2012-12-13 16:35:00
10:55 AM,10.4,8.6,92,29.94,10.0,SE,3.5,-,N/A,,Overcast,140,2012-12-13 16:55:00
11:15 AM,12.2,10.4,92,29.93,10.0,ESE,4.6,-,N/A,Snow,Light Snow,120,2012-12-13 17:15:00
11:35 AM,12.2,10.4,92,29.94,10.0,Calm,Calm,-,N/A,,Overcast,0,2012-12-13 17:35:00
11:55 AM,14.0,10.4,86,29.92,8.0,Calm,Calm,-,N/A,,Overcast,0,2012-12-13 17:55:00
12:15 PM,14.0,12.2,93,29.92,10.0,Calm,Calm,-,N/A,,Overcast,0,2012-12-13 18:15:00
12:35 PM,15.8,14.0,93,29.91,10.0,SSE,3.5,-,N/A,,Overcast,160,2012-12-13 18:35:00
12:55 PM,17.6,15.8,93,29.89,9.0,SSE,5.8,-,N/A,,Overcast,160,2012-12-13 18:55:00
1:15 PM,19.4,17.6,93,29.88,8.0,South,8.1,-,N/A,,Overcast,190,2012-12-13 19:15:00
1:35 PM,19.4,17.6,93,29.88,9.0,SSW,8.1,-,N/A,,Overcast,200,2012-12-13 19:35:00
1:55 PM,19.4,17.6,93,29.88,8.0,SSW,8.1,-,N/A,,Overcast,200,2012-12-13 19:55:00
2:15 PM,21.2,17.6,86,29.88,8.0,SSW,8.1,-,N/A,,Overcast,200,2012-12-13 20:15:00
2:35 PM,21.2,19.4,93,29.87,6.0,SSW,8.1,-,N/A,,Overcast,200,2012-12-13 20:35:00
2:55 PM,23.0,19.4,86,29.87,4.0,SSW,8.1,-,N/A,,Overcast,200,2012-12-13 20:55:00
3:15 PM,23.0,21.2,93,29.87,3.0,SSW,6.9,-,N/A,,Overcast,200,2012-12-13 21:15:00
3:35 PM,23.0,21.2,93,29.87,3.0,SSW,8.1,-,N/A,,Overcast,200,2012-12-13 21:35:00
3:55 PM,23.0,21.2,93,29.86,2.5,South,6.9,-,N/A,,Overcast,190,2012-12-13 21:55:00
4:15 PM,23.0,23.0,100,29.86,2.0,South,4.6,-,N/A,,Overcast,190,2012-12-13 22:15:00
4:35 PM,23.0,23.0,100,29.85,2.0,SSE,4.6,-,N/A,,Overcast,150,2012-12-13 22:35:00
6:15 PM,26.6,26.6,100,29.83,5.0,SSW,8.1,-,N/A,,Overcast,210,2012-12-14 00:15:00
7:15 PM,28.4,28.4,100,29.84,4.0,SSW,5.8,-,N/A,,Overcast,200,2012-12-14 01:15:00
7:35 PM,28.4,28.4,100,29.83,4.0,South,5.8,-,N/A,,Overcast,190,2012-12-14 01:35:00
7:55 PM,28.4,28.4,100,29.83,4.0,South,8.1,-,N/A,,Overcast,190,2012-12-14 01:55:00
8:15 PM,30.2,30.2,100,29.83,5.0,SSW,6.9,-,N/A,,Overcast,210,2012-12-14 02:15:00
8:35 PM,30.2,30.2,100,29.82,5.0,SW,4.6,-,N/A,,Overcast,220,2012-12-14 02:35:00
8:55 PM,30.2,30.2,100,29.82,7.0,SSW,8.1,-,N/A,,Overcast,200,2012-12-14 02:55:00
9:15 PM,32.0,32.0,100,29.82,10.0,SSW,6.9,-,N/A,,Overcast,200,2012-12-14 03:15:00
9:35 PM,30.2,30.2,100,29.81,7.0,SSW,8.1,-,N/A,,Overcast,200,2012-12-14 03:35:00
9:55 PM,30.2,30.2,100,29.81,8.0,SSW,9.2,-,N/A,,Overcast,200,2012-12-14 03:55:00
10:15 PM,32.0,30.2,93,29.81,10.0,SSW,10.4,-,N/A,,Overcast,210,2012-12-14 04:15:00
10:35 PM,32.0,30.2,93,29.80,10.0,SSW,11.5,-,N/A,,Overcast,200,2012-12-14 04:35:00
10:55 PM,30.2,28.4,93,29.80,10.0,SSW,10.4,-,N/A,,Overcast,210,2012-12-14 04:55:00
11:15 PM,30.2,28.4,93,29.80,10.0,SSW,12.7,-,N/A,,Overcast,200,2012-12-14 05:15:00
11:35 PM,32.0,28.4,87,29.80,10.0,SSW,15.0,-,N/A,,Overcast,200,2012-12-14 05:35:00